Current weather by "City, St" or "zip code"  
 
Advertise Here

Current Conditions: Waukesha County Airport, WI

Fair


21.0 F

Last Updated on Jan 27 2021, 12:45 pm CST
Humidity: 58%
Wind Speed: NW 9.2 mph
Barometer 30.37 in
Dewpoint: 8.6 F
Visibility: 10.00 mi
Precip: --
Heat Index: NA
Wind Chill: 11 F
Current conditions at:

Waukesha County Airport, WI (KUES)

Lat: 43.04245 Lon: 88.24607

Local Radar Image active severe weather and emergency alerts image image weather storm and storm spotter reports image weather observation monitoring service image
Local
Radar
Active
Alerts
Storm Reports Obs
Monitoring

Sign-up For Email & Text Message Weather Alert Notification Services


Advertise Here

Observation History for Waukesha County Airport, WI


Time Wind
(mph)
Vis
(mi)
Weather Precip (in) Temperature (F) Relative
Humidity
Wind
Chill
(F)
Heat
Index
(F)
Pressure
Air Dwpt altimeter
(in)
sea level
(mb)
Rmks
12:45 pm CST NW 9.2 10.00 Fair -- 21.0 8.6 58% 11 NA 30.37 M
11:45 am CST NW 9.2 10.00 Fair -- 19.0 8.6 63% 8 NA 30.38 M
10:45 am CST NW 8.1 10.00 Fair -- 19.0 8.6 63% 9 NA 30.39 M
9:45 am CST N 5.8 10.00 Fair -- 16.0 6.8 67% 7 NA 30.38 M
8:45 am CST N 8.1 10.00 Fair -- 10.0 5.0 79% -2 NA 30.37 M
7:45 am CST NW 5.8 10.00 Fair -- 7.0 3.2 85% -3 NA 30.37 M
6:45 am CST N 0.0 10.00 Fair -- 7.0 3.2 85% NA NA 30.34 M
5:45 am CST N 0.0 10.00 Fair -- 9.0 3.2 78% NA NA 30.28 M
4:55 am CST NW 3.5 10.00 Partly Cloudy -- 10.0 5.0 79% NA NA 30.30 M
3:55 am CST NW 4.6 10.00 Fair -- 9.0 5.0 85% 1 NA 30.32 M
2:55 am CST W 4.6 10.00 Fair -- 9.0 5.0 85% 1 NA 30.33 M
1:55 am CST W 5.8 10.00 Fair -- 10.0 8.6 92% NA NA 30.30 M
12:55 am CST W 4.6 10.00 Fair -- 10.0 8.6 92% 2 NA 30.27 M
11:55 pm CST N 0.0 10.00 Fair -- 12.0 8.6 85% NA NA 30.25 M
10:55 pm CST NW 3.5 10.00 Fair -- 10.0 8.6 92% NA NA 30.22 M
9:55 pm CST NW 3.5 10.00 Fair -- 12.0 10.4 92% NA NA 30.20 M
8:45 pm CST N 0.0 10.00 Fair -- 14.0 10.4 85% NA NA 30.20 M
7:45 pm CST N 4.6 10.00 Partly Cloudy -- 19.0 12.2 73% 12 NA 30.18 M
6:45 pm CST N 8.1 10.00 Overcast -- 21.0 15.8 80% 11 NA 30.16 M
5:45 pm CST N 11.5 G 17.3 10.00 Overcast -- 21.0 15.8 80% 9 NA 30.12 M
4:45 pm CST N 8.1 G 17.3 10.00 Overcast -- 23.0 15.8 74% 14 NA 30.08 M
3:45 pm CST N 15.0 G 20.7 10.00 Overcast -- 25.0 17.6 74% 13 NA 30.05 M
2:45 pm CST N 11.5 G 23.0 10.00 Overcast -- 27.0 19.4 74% 17 NA 30.02 M
1:45 pm CST N 11.5 G 20.7 10.00 Overcast -- 27.0 19.4 74% 17 NA 29.98 M

Regional Weather Observation


Watertown, WI (KRYV)

Fair
17.0 F

Milwaukee-Timmerman, WI (KMWC)

Partly Cloudy
21.0 F

West Bend Municipal Airport, WI (KETB)

Fair
21.0 F

Juneau, Dodge County Airport, WI (KUNU)

Fair
15.0 F

Fond Du Lac County Airport, WI (KFLD)

A Few Clouds
19.0 F

Wittman Regional Airport, WI (KOSH)

Fair
18.0 F